contact:dominique.lefevre@mio.osupytheas.fr, maurice.libes@osupytheas.fr, didier.mallarino@osupytheas.fr
Project:EMSO http://www.emso-fr.org/EMSO-France
Depth: 2436.0 m
Title:EMSO Ligure Ouest : Data MII capteur CSTAR
DateTime,Latitude,Longitude,Instrument_Serial,Reference_Counts,Signal_Counts,Corrected_Signal_raw_counts,Calculated_Beam_c_inverse_meters,Internal_thermistor_counts
DateTime,Latitude,Longitude,Instrument_Serial,Reference_Counts,Signal_Counts,Corrected_Signal_raw_counts,Calculated_Beam_c_inverse_meters,Internal_thermistor_counts
2021-06-06T00:01:58,42.805,6.029,CST-1368DR,5514,7691,14981,0.166,551
2021-06-06T00:05:00,42.805,6.029,CST-1368DR,5514,7691,14980,0.166,551
2021-06-06T00:08:01,42.805,6.029,CST-1368DR,5514,7691,14981,0.166,551
2021-06-06T00:11:03,42.805,6.029,CST-1368DR,5514,7692,14981,0.166,551
2021-06-06T00:14:04,42.805,6.029,CST-1368DR,5514,7692,14982,0.166,551
2021-06-06T00:17:06,42.805,6.029,CST-1368DR,5513,7691,14983,0.166,551
2021-06-06T00:20:08,42.805,6.029,CST-1368DR,5513,7691,14982,0.166,551
2021-06-06T00:23:09,42.805,6.029,CST-1368DR,5513,7689,14979,0.167,551
2021-06-06T00:26:11,42.805,6.029,CST-1368DR,5513,7690,14981,0.166,551
2021-06-06T00:29:12,42.805,6.029,CST-1368DR,5513,7689,14979,0.167,551
2021-06-06T00:32:14,42.805,6.029,CST-1368DR,5513,7691,14982,0.166,551
2021-06-06T00:35:16,42.805,6.029,CST-1368DR,5513,7690,14980,0.166,551
2021-06-06T00:38:17,42.805,6.029,CST-1368DR,5513,7689,14979,0.167,551
2021-06-06T00:41:19,42.805,6.029,CST-1368DR,5513,7691,14983,0.166,551
2021-06-06T00:44:20,42.805,6.029,CST-1368DR,5513,7690,14981,0.166,551
2021-06-06T00:47:22,42.805,6.029,CST-1368DR,5513,7690,14981,0.166,551
2021-06-06T00:50:23,42.805,6.029,CST-1368DR,5513,7691,14982,0.166,551
2021-06-06T00:53:25,42.805,6.029,CST-1368DR,5513,7689,14979,0.167,551
2021-06-06T00:56:27,42.805,6.029,CST-1368DR,5513,7690,14981,0.166,551
2021-06-06T00:59:28,42.805,6.029,CST-1368DR,5513,7691,14982,0.166,551
2021-06-06T01:02:30,42.805,6.029,CST-1368DR,5513,7691,14982,0.166,551
2021-06-06T01:05:31,42.805,6.029,CST-1368DR,5513,7691,14982,0.166,551
2021-06-06T01:08:33,42.805,6.029,CST-1368DR,5513,7689,14978,0.167,551
2021-06-06T01:11:35,42.805,6.029,CST-1368DR,5513,7690,14981,0.166,551
2021-06-06T01:14:36,42.805,6.029,CST-1368DR,5513,7690,14981,0.166,551
2021-06-06T01:17:38,42.805,6.029,CST-1368DR,5513,7690,14981,0.166,551
2021-06-06T01:20:39,42.805,6.029,CST-1368DR,5513,7690,14980,0.166,551
2021-06-06T01:23:41,42.805,6.029,CST-1368DR,5513,7690,14981,0.166,551
2021-06-06T01:26:42,42.805,6.029,CST-1368DR,5513,7691,14982,0.166,551
2021-06-06T01:29:44,42.805,6.029,CST-1368DR,5513,7687,14975,0.168,551
2021-06-06T01:32:46,42.805,6.029,CST-1368DR,5513,7690,14981,0.166,551
2021-06-06T01:35:47,42.805,6.029,CST-1368DR,5513,7690,14980,0.166,551
2021-06-06T01:38:49,42.805,6.029,CST-1368DR,5513,7689,14979,0.167,551
2021-06-06T01:41:50,42.805,6.029,CST-1368DR,5512,7690,14983,0.166,551
2021-06-06T01:44:52,42.805,6.029,CST-1368DR,5512,7690,14982,0.166,551
2021-06-06T01:47:53,42.805,6.029,CST-1368DR,5512,7685,14973,0.168,550
2021-06-06T01:50:55,42.805,6.029,CST-1368DR,5512,7688,14980,0.166,550
2021-06-06T01:53:57,42.805,6.029,CST-1368DR,5512,7687,14978,0.167,551
2021-06-06T01:56:58,42.805,6.029,CST-1368DR,5512,7687,14978,0.167,551
2021-06-06T02:00:00,42.805,6.029,CST-1368DR,5512,7688,14980,0.166,551
2021-06-06T02:03:01,42.805,6.029,CST-1368DR,5512,7690,14983,0.166,551
2021-06-06T02:06:03,42.805,6.029,CST-1368DR,5512,7689,14981,0.166,551
2021-06-06T02:09:05,42.805,6.029,CST-1368DR,5512,7688,14980,0.166,551
2021-06-06T02:12:06,42.805,6.029,CST-1368DR,5512,7688,14979,0.167,551
2021-06-06T02:15:08,42.805,6.029,CST-1368DR,5512,7687,14978,0.167,551
2021-06-06T02:18:09,42.805,6.029,CST-1368DR,5512,7689,14981,0.166,551
2021-06-06T02:21:11,42.805,6.029,CST-1368DR,5512,7687,14978,0.167,551
2021-06-06T02:24:12,42.805,6.029,CST-1368DR,5512,7689,14980,0.166,551
2021-06-06T02:27:14,42.805,6.029,CST-1368DR,5511,7689,14983,0.166,551
2021-06-06T02:30:16,42.805,6.029,CST-1368DR,5511,7688,14983,0.166,551
2021-06-06T02:33:17,42.805,6.029,CST-1368DR,5511,7688,14983,0.166,551
2021-06-06T02:36:19,42.805,6.029,CST-1368DR,5511,7690,14985,0.165,551
2021-06-06T02:39:20,42.805,6.029,CST-1368DR,5511,7689,14984,0.165,551
2021-06-06T02:42:22,42.805,6.029,CST-1368DR,5511,7689,14984,0.165,551
2021-06-06T02:45:23,42.805,6.029,CST-1368DR,5511,7686,14979,0.167,551
2021-06-06T02:48:25,42.805,6.029,CST-1368DR,5511,7687,14980,0.166,551
2021-06-06T02:51:27,42.805,6.029,CST-1368DR,5511,7687,14980,0.166,551
2021-06-06T02:54:28,42.805,6.029,CST-1368DR,5511,7688,14982,0.166,551
2021-06-06T02:57:30,42.805,6.029,CST-1368DR,5511,7688,14982,0.166,551
2021-06-06T03:00:31,42.805,6.029,CST-1368DR,5511,7689,14983,0.166,551
2021-06-06T03:03:33,42.805,6.029,CST-1368DR,5511,7689,14983,0.166,551
2021-06-06T03:06:35,42.805,6.029,CST-1368DR,5511,7687,14980,0.166,551
2021-06-06T03:09:36,42.805,6.029,CST-1368DR,5511,7688,14983,0.166,551
2021-06-06T03:12:38,42.805,6.029,CST-1368DR,5511,7688,14983,0.166,551
2021-06-06T03:15:39,42.805,6.029,CST-1368DR,5511,7688,14982,0.166,551
2021-06-06T03:18:41,42.805,6.029,CST-1368DR,5511,7687,14980,0.166,551
2021-06-06T03:21:42,42.805,6.029,CST-1368DR,5511,7688,14982,0.166,551
2021-06-06T03:24:44,42.805,6.029,CST-1368DR,5511,7687,14980,0.166,551
2021-06-06T03:27:46,42.805,6.029,CST-1368DR,5511,7689,14983,0.166,551
2021-06-06T03:30:47,42.805,6.029,CST-1368DR,5511,7687,14980,0.166,551
2021-06-06T03:33:49,42.805,6.029,CST-1368DR,5511,7687,14980,0.166,551
2021-06-06T03:36:50,42.805,6.029,CST-1368DR,5511,7687,14980,0.166,551
2021-06-06T03:39:52,42.805,6.029,CST-1368DR,5511,7687,14980,0.166,551
2021-06-06T03:42:54,42.805,6.029,CST-1368DR,5511,7686,14979,0.167,551
2021-06-06T03:45:55,42.805,6.029,CST-1368DR,5511,7686,14977,0.167,551
2021-06-06T03:48:57,42.805,6.029,CST-1368DR,5511,7686,14978,0.167,551
2021-06-06T03:51:58,42.805,6.029,CST-1368DR,5511,7686,14978,0.167,551
2021-06-06T03:55:00,42.805,6.029,CST-1368DR,5511,7687,14979,0.167,551
2021-06-06T03:58:01,42.805,6.029,CST-1368DR,5511,7687,14979,0.167,551
2021-06-06T04:01:03,42.805,6.029,CST-1368DR,5511,7686,14977,0.167,551
2021-06-06T04:04:05,42.805,6.029,CST-1368DR,5510,7687,14983,0.166,551
2021-06-06T04:07:06,42.805,6.029,CST-1368DR,5510,7686,14980,0.166,551
2021-06-06T04:10:08,42.805,6.029,CST-1368DR,5510,7685,14979,0.167,550
2021-06-06T04:13:09,42.805,6.029,CST-1368DR,5510,7686,14981,0.166,551
2021-06-06T04:16:11,42.805,6.029,CST-1368DR,5510,7687,14982,0.166,551
2021-06-06T04:19:13,42.805,6.029,CST-1368DR,5510,7686,14981,0.166,550
2021-06-06T04:22:14,42.805,6.029,CST-1368DR,5510,7688,14984,0.165,551
2021-06-06T04:25:16,42.805,6.029,CST-1368DR,5510,7688,14984,0.165,551
2021-06-06T04:28:17,42.805,6.029,CST-1368DR,5510,7687,14983,0.166,551
2021-06-06T04:31:19,42.805,6.029,CST-1368DR,5510,7687,14983,0.166,551
2021-06-06T04:34:20,42.805,6.029,CST-1368DR,5510,7687,14982,0.166,551
2021-06-06T04:37:22,42.805,6.029,CST-1368DR,5510,7686,14981,0.166,551
2021-06-06T04:40:24,42.805,6.029,CST-1368DR,5510,7686,14981,0.166,551
2021-06-06T04:43:25,42.805,6.029,CST-1368DR,5510,7687,14983,0.166,551
2021-06-06T04:46:27,42.805,6.029,CST-1368DR,5510,7680,14969,0.169,551
2021-06-06T04:49:28,42.805,6.029,CST-1368DR,5510,7687,14982,0.166,551
2021-06-06T04:52:30,42.805,6.029,CST-1368DR,5510,7686,14981,0.166,551
2021-06-06T04:55:31,42.805,6.029,CST-1368DR,5510,7686,14980,0.166,551
2021-06-06T04:58:33,42.805,6.029,CST-1368DR,5510,7688,14984,0.165,551
2021-06-06T05:01:35,42.805,6.029,CST-1368DR,5510,7688,14985,0.165,550
2021-06-06T05:04:36,42.805,6.029,CST-1368DR,5510,7687,14982,0.166,551
2021-06-06T05:07:38,42.805,6.029,CST-1368DR,5510,7687,14983,0.166,551
2021-06-06T05:10:39,42.805,6.029,CST-1368DR,5510,7686,14981,0.166,551
2021-06-06T05:13:41,42.805,6.029,CST-1368DR,5510,7687,14983,0.166,551
2021-06-06T05:16:43,42.805,6.029,CST-1368DR,5510,7687,14983,0.166,551
2021-06-06T05:19:44,42.805,6.029,CST-1368DR,5510,7685,14978,0.167,551
2021-06-06T05:22:46,42.805,6.029,CST-1368DR,5510,7687,14983,0.166,551
2021-06-06T05:25:47,42.805,6.029,CST-1368DR,5510,7686,14980,0.166,551
2021-06-06T05:28:49,42.805,6.029,CST-1368DR,5510,7685,14979,0.167,551
2021-06-06T05:31:50,42.805,6.029,CST-1368DR,5510,7687,14983,0.166,551
2021-06-06T05:34:52,42.805,6.029,CST-1368DR,5510,7687,14983,0.166,551
2021-06-06T05:37:54,42.805,6.029,CST-1368DR,5510,7687,14982,0.166,551
2021-06-06T05:40:55,42.805,6.029,CST-1368DR,5510,7685,14978,0.167,551
2021-06-06T05:43:57,42.805,6.029,CST-1368DR,5510,7686,14980,0.166,551
2021-06-06T05:46:58,42.805,6.029,CST-1368DR,5510,7686,14980,0.166,551
2021-06-06T05:50:00,42.805,6.029,CST-1368DR,5510,7686,14980,0.166,551
2021-06-06T05:53:02,42.805,6.029,CST-1368DR,5510,7685,14979,0.167,551
2021-06-06T05:56:03,42.805,6.029,CST-1368DR,5510,7685,14979,0.167,551
2021-06-06T05:59:05,42.805,6.029,CST-1368DR,5510,7685,14978,0.167,551
2021-06-06T06:02:06,42.805,6.029,CST-1368DR,5510,7686,14981,0.166,551
2021-06-06T06:05:08,42.805,6.029,CST-1368DR,5510,7686,14980,0.166,551
2021-06-06T06:08:09,42.805,6.029,CST-1368DR,5510,7687,14982,0.166,551
2021-06-06T06:11:11,42.805,6.029,CST-1368DR,5510,7686,14980,0.166,551
2021-06-06T06:14:13,42.805,6.029,CST-1368DR,5510,7686,14981,0.166,551
2021-06-06T06:17:14,42.805,6.029,CST-1368DR,5510,7686,14981,0.166,551
2021-06-06T06:20:16,42.805,6.029,CST-1368DR,5510,7687,14983,0.166,551
2021-06-06T06:23:17,42.805,6.029,CST-1368DR,5510,7686,14981,0.166,550
2021-06-06T06:26:19,42.805,6.029,CST-1368DR,5510,7684,14976,0.167,551
2021-06-06T06:29:20,42.805,6.029,CST-1368DR,5510,7686,14981,0.166,551
2021-06-06T06:32:22,42.805,6.029,CST-1368DR,5510,7686,14981,0.166,551
2021-06-06T06:35:24,42.805,6.029,CST-1368DR,5510,7684,14976,0.167,551
2021-06-06T06:38:25,42.805,6.029,CST-1368DR,5510,7686,14980,0.166,551
2021-06-06T06:41:27,42.805,6.029,CST-1368DR,5510,7686,14981,0.166,551
2021-06-06T06:44:28,42.805,6.029,CST-1368DR,5510,7686,14981,0.166,551
2021-06-06T06:47:30,42.805,6.029,CST-1368DR,5510,7686,14980,0.166,551
2021-06-06T06:50:32,42.805,6.029,CST-1368DR,5510,7686,14980,0.166,551
2021-06-06T06:53:33,42.805,6.029,CST-1368DR,5510,7686,14980,0.166,551
2021-06-06T06:56:35,42.805,6.029,CST-1368DR,5510,7685,14979,0.167,551
2021-06-06T06:59:36,42.805,6.029,CST-1368DR,5510,7686,14981,0.166,551
2021-06-06T07:02:38,42.805,6.029,CST-1368DR,5510,7686,14981,0.166,551
2021-06-06T07:05:39,42.805,6.029,CST-1368DR,5510,7686,14980,0.166,551
2021-06-06T07:08:41,42.805,6.029,CST-1368DR,5510,7683,14975,0.168,551
2021-06-06T07:11:43,42.805,6.029,CST-1368DR,5510,7687,14983,0.166,551
2021-06-06T07:14:44,42.805,6.029,CST-1368DR,5510,7685,14979,0.167,551
2021-06-06T07:17:46,42.805,6.029,CST-1368DR,5510,7687,14982,0.166,551
2021-06-06T07:20:47,42.805,6.029,CST-1368DR,5509,7685,14981,0.166,551
2021-06-06T07:23:49,42.805,6.029,CST-1368DR,5510,7685,14979,0.167,551
2021-06-06T07:26:51,42.805,6.029,CST-1368DR,5509,7685,14981,0.166,551
2021-06-06T07:29:52,42.805,6.029,CST-1368DR,5509,7686,14984,0.165,551
2021-06-06T07:32:54,42.805,6.029,CST-1368DR,5509,7685,14981,0.166,551
2021-06-06T07:35:55,42.805,6.029,CST-1368DR,5509,7686,14982,0.166,551
2021-06-06T07:38:57,42.805,6.029,CST-1368DR,5509,7686,14983,0.166,551
2021-06-06T07:41:58,42.805,6.029,CST-1368DR,5509,7686,14983,0.166,551
2021-06-06T07:45:00,42.805,6.029,CST-1368DR,5509,7684,14979,0.167,551
2021-06-06T07:48:02,42.805,6.029,CST-1368DR,5509,7686,14983,0.166,551
2021-06-06T07:51:03,42.805,6.029,CST-1368DR,5509,7683,14977,0.167,551
2021-06-06T07:54:05,42.805,6.029,CST-1368DR,5509,7685,14981,0.166,551
2021-06-06T07:57:06,42.805,6.029,CST-1368DR,5509,7685,14981,0.166,551
2021-06-06T08:00:08,42.805,6.029,CST-1368DR,5509,7684,14978,0.167,551
2021-06-06T08:03:09,42.805,6.029,CST-1368DR,5509,7685,14982,0.166,551
2021-06-06T08:06:11,42.805,6.029,CST-1368DR,5509,7685,14982,0.166,551
2021-06-06T08:09:13,42.805,6.029,CST-1368DR,5509,7685,14981,0.166,551
2021-06-06T08:12:14,42.805,6.029,CST-1368DR,5509,7685,14981,0.166,551
2021-06-06T08:15:16,42.805,6.029,CST-1368DR,5509,7685,14980,0.166,551
2021-06-06T08:18:17,42.805,6.029,CST-1368DR,5509,7683,14977,0.167,551
2021-06-06T08:21:19,42.805,6.029,CST-1368DR,5509,7685,14981,0.166,551
2021-06-06T08:24:21,42.805,6.029,CST-1368DR,5509,7685,14981,0.166,551
2021-06-06T08:27:22,42.805,6.029,CST-1368DR,5509,7685,14981,0.166,550
2021-06-06T08:30:24,42.805,6.029,CST-1368DR,5509,7686,14983,0.166,551
2021-06-06T08:33:25,42.805,6.029,CST-1368DR,5509,7685,14981,0.166,551
2021-06-06T08:36:27,42.805,6.029,CST-1368DR,5509,7685,14981,0.166,551
2021-06-06T08:39:28,42.805,6.029,CST-1368DR,5509,7684,14979,0.167,551
2021-06-06T08:42:30,42.805,6.029,CST-1368DR,5509,7684,14979,0.167,551
2021-06-06T08:45:32,42.805,6.029,CST-1368DR,5509,7685,14981,0.166,551
2021-06-06T08:48:33,42.805,6.029,CST-1368DR,5509,7685,14982,0.166,551
2021-06-06T08:51:35,42.805,6.029,CST-1368DR,5509,7685,14980,0.166,551
2021-06-06T08:54:36,42.805,6.029,CST-1368DR,5509,7685,14981,0.166,551
2021-06-06T08:57:38,42.805,6.029,CST-1368DR,5509,7686,14982,0.166,551
2021-06-06T09:00:40,42.805,6.029,CST-1368DR,5509,7685,14981,0.166,551
2021-06-06T09:03:41,42.805,6.029,CST-1368DR,5509,7685,14980,0.166,551
2021-06-06T09:06:43,42.805,6.029,CST-1368DR,5509,7685,14982,0.166,551
2021-06-06T09:09:44,42.805,6.029,CST-1368DR,5509,7685,14982,0.166,551
2021-06-06T09:12:46,42.805,6.029,CST-1368DR,5509,7685,14982,0.166,551
2021-06-06T09:15:47,42.805,6.029,CST-1368DR,5509,7684,14979,0.167,551
2021-06-06T09:18:49,42.805,6.029,CST-1368DR,5509,7686,14982,0.166,551
2021-06-06T09:21:51,42.805,6.029,CST-1368DR,5494,5517,10782,01.482,551
2021-06-06T09:24:52,42.805,6.029,CST-1368DR,5509,7685,14981,0.166,551
2021-06-06T09:27:54,42.805,6.029,CST-1368DR,5509,7684,14978,0.167,551
2021-06-06T09:30:55,42.805,6.029,CST-1368DR,5509,7685,14980,0.166,551
2021-06-06T09:33:57,42.805,6.029,CST-1368DR,5509,7685,14982,0.166,551
2021-06-06T09:36:58,42.805,6.029,CST-1368DR,5509,7685,14982,0.166,551
2021-06-06T09:40:00,42.805,6.029,CST-1368DR,5509,7685,14981,0.166,551
2021-06-06T09:43:02,42.805,6.029,CST-1368DR,5509,7685,14981,0.166,551
2021-06-06T09:46:03,42.805,6.029,CST-1368DR,5509,7684,14978,0.167,551
2021-06-06T09:49:05,42.805,6.029,CST-1368DR,5509,7685,14982,0.166,551
2021-06-06T09:52:06,42.805,6.029,CST-1368DR,5509,7685,14981,0.166,551
2021-06-06T09:55:08,42.805,6.029,CST-1368DR,5509,7686,14983,0.166,551
2021-06-06T09:58:10,42.805,6.029,CST-1368DR,5509,7683,14977,0.167,551
2021-06-06T10:01:11,42.805,6.029,CST-1368DR,5509,7684,14979,0.167,551
2021-06-06T10:04:13,42.805,6.029,CST-1368DR,5509,7685,14982,0.166,551
2021-06-06T10:07:14,42.805,6.029,CST-1368DR,5509,7685,14981,0.166,551
2021-06-06T10:10:16,42.805,6.029,CST-1368DR,5509,7685,14981,0.166,551
2021-06-06T10:13:17,42.805,6.029,CST-1368DR,5509,7685,14981,0.166,551
2021-06-06T10:16:19,42.805,6.029,CST-1368DR,5509,7684,14978,0.167,551
2021-06-06T10:19:21,42.805,6.029,CST-1368DR,5509,7684,14978,0.167,551
2021-06-06T10:22:22,42.805,6.029,CST-1368DR,5509,7685,14980,0.166,551
2021-06-06T10:25:24,42.805,6.029,CST-1368DR,5509,7685,14981,0.166,551
2021-06-06T10:28:25,42.805,6.029,CST-1368DR,5509,7685,14981,0.166,551
2021-06-06T10:31:27,42.805,6.029,CST-1368DR,5509,7685,14981,0.166,551
2021-06-06T10:34:29,42.805,6.029,CST-1368DR,5509,7685,14980,0.166,551
2021-06-06T10:37:30,42.805,6.029,CST-1368DR,5509,7682,14975,0.168,551
2021-06-06T10:40:32,42.805,6.029,CST-1368DR,5509,7685,14981,0.166,551
2021-06-06T10:43:33,42.805,6.029,CST-1368DR,5509,7682,14975,0.168,551
2021-06-06T10:46:35,42.805,6.029,CST-1368DR,5509,7684,14979,0.167,551
2021-06-06T10:49:36,42.805,6.029,CST-1368DR,5509,7684,14978,0.167,551
2021-06-06T10:52:38,42.805,6.029,CST-1368DR,5509,7684,14979,0.167,551
2021-06-06T10:55:40,42.805,6.029,CST-1368DR,5509,7685,14980,0.166,551
2021-06-06T10:58:41,42.805,6.029,CST-1368DR,5509,7686,14982,0.166,551
2021-06-06T11:01:43,42.805,6.029,CST-1368DR,5509,7684,14979,0.167,551
2021-06-06T11:04:44,42.805,6.029,CST-1368DR,5509,7686,14983,0.166,551
2021-06-06T11:07:46,42.805,6.029,CST-1368DR,5509,7686,14982,0.166,551
2021-06-06T11:10:47,42.805,6.029,CST-1368DR,5509,7686,14983,0.166,551
2021-06-06T11:13:49,42.805,6.029,CST-1368DR,5509,7685,14982,0.166,551
2021-06-06T11:16:51,42.805,6.029,CST-1368DR,5509,7684,14979,0.167,551
2021-06-06T11:19:52,42.805,6.029,CST-1368DR,5509,7685,14980,0.166,551
2021-06-06T11:22:54,42.805,6.029,CST-1368DR,5509,7685,14981,0.166,551
2021-06-06T11:25:55,42.805,6.029,CST-1368DR,5509,7685,14980,0.166,551
2021-06-06T11:28:57,42.805,6.029,CST-1368DR,5509,7684,14979,0.167,551
2021-06-06T11:31:59,42.805,6.029,CST-1368DR,5509,7685,14980,0.166,551
2021-06-06T11:35:00,42.805,6.029,CST-1368DR,5509,7686,14982,0.166,551
2021-06-06T11:38:02,42.805,6.029,CST-1368DR,5509,7685,14981,0.166,551
2021-06-06T11:41:03,42.805,6.029,CST-1368DR,5509,7684,14978,0.167,551
2021-06-06T11:44:05,42.805,6.029,CST-1368DR,5509,7685,14981,0.166,551
2021-06-06T11:47:06,42.805,6.029,CST-1368DR,5509,7679,14970,0.169,551
2021-06-06T11:50:08,42.805,6.029,CST-1368DR,5509,7685,14981,0.166,551
2021-06-06T11:53:10,42.805,6.029,CST-1368DR,5509,7685,14982,0.166,551
2021-06-06T11:56:11,42.805,6.029,CST-1368DR,5509,7684,14979,0.167,551
2021-06-06T11:59:13,42.805,6.029,CST-1368DR,5509,7686,14982,0.166,551
2021-06-06T12:02:14,42.805,6.029,CST-1368DR,5509,7684,14979,0.167,551
2021-06-06T12:05:16,42.805,6.029,CST-1368DR,5509,7684,14979,0.167,551
2021-06-06T12:08:18,42.805,6.029,CST-1368DR,5509,7683,14977,0.167,551
2021-06-06T12:11:19,42.805,6.029,CST-1368DR,5509,7685,14981,0.166,551
2021-06-06T12:14:21,42.805,6.029,CST-1368DR,5509,7685,14981,0.166,551
2021-06-06T12:17:22,42.805,6.029,CST-1368DR,5509,7685,14980,0.166,551
2021-06-06T12:20:24,42.805,6.029,CST-1368DR,5509,7683,14978,0.167,551
2021-06-06T12:23:25,42.805,6.029,CST-1368DR,5509,7685,14981,0.166,551
2021-06-06T12:26:27,42.805,6.029,CST-1368DR,5509,7685,14981,0.166,551
2021-06-06T12:29:29,42.805,6.029,CST-1368DR,5509,7682,14975,0.168,551
2021-06-06T12:32:30,42.805,6.029,CST-1368DR,5509,7684,14979,0.167,551
2021-06-06T12:35:32,42.805,6.029,CST-1368DR,5509,7685,14981,0.166,551
2021-06-06T12:38:33,42.805,6.029,CST-1368DR,5509,7682,14976,0.167,551
2021-06-06T12:41:35,42.805,6.029,CST-1368DR,5509,7685,14980,0.166,551
2021-06-06T12:44:36,42.805,6.029,CST-1368DR,5509,7685,14981,0.166,551
2021-06-06T12:47:38,42.805,6.029,CST-1368DR,5509,7685,14981,0.166,551
2021-06-06T12:50:40,42.805,6.029,CST-1368DR,5509,7685,14981,0.166,551
2021-06-06T12:53:41,42.805,6.029,CST-1368DR,5509,7684,14978,0.167,551
2021-06-06T12:56:43,42.805,6.029,CST-1368DR,5509,7683,14978,0.167,551
2021-06-06T12:59:44,42.805,6.029,CST-1368DR,5509,7684,14978,0.167,551
2021-06-06T13:02:46,42.805,6.029,CST-1368DR,5509,7684,14979,0.167,551
2021-06-06T13:05:47,42.805,6.029,CST-1368DR,5509,7684,14979,0.167,551
2021-06-06T13:08:49,42.805,6.029,CST-1368DR,5509,7686,14983,0.166,551
2021-06-06T13:11:51,42.805,6.029,CST-1368DR,5509,7684,14979,0.167,550
2021-06-06T13:14:52,42.805,6.029,CST-1368DR,5509,7685,14981,0.166,551
2021-06-06T13:17:54,42.805,6.029,CST-1368DR,5509,7685,14982,0.166,551
2021-06-06T13:20:55,42.805,6.029,CST-1368DR,5509,7684,14979,0.167,551
2021-06-06T13:23:57,42.805,6.029,CST-1368DR,5509,7682,14975,0.168,551
2021-06-06T13:26:59,42.805,6.029,CST-1368DR,5509,7681,14974,0.168,551
2021-06-06T13:30:00,42.805,6.029,CST-1368DR,5508,7685,14983,0.166,550
2021-06-06T13:33:02,42.805,6.029,CST-1368DR,5509,7685,14981,0.166,551
2021-06-06T13:36:03,42.805,6.029,CST-1368DR,5508,7682,14978,0.167,551
2021-06-06T13:39:05,42.805,6.029,CST-1368DR,5508,7683,14980,0.166,551
2021-06-06T13:42:06,42.805,6.029,CST-1368DR,5508,7684,14981,0.166,551
2021-06-06T13:45:08,42.805,6.029,CST-1368DR,5509,7684,14978,0.167,551
2021-06-06T13:48:10,42.805,6.029,CST-1368DR,5508,7684,14981,0.166,551
2021-06-06T13:51:11,42.805,6.029,CST-1368DR,5508,7684,14981,0.166,551
2021-06-06T13:54:13,42.805,6.029,CST-1368DR,5509,7683,14978,0.167,551
2021-06-06T13:57:14,42.805,6.029,CST-1368DR,5508,7684,14982,0.166,551
2021-06-06T14:00:16,42.805,6.029,CST-1368DR,5508,7684,14981,0.166,551
2021-06-06T14:03:18,42.805,6.029,CST-1368DR,5508,7683,14981,0.166,551
2021-06-06T14:06:19,42.805,6.029,CST-1368DR,5508,7684,14981,0.166,551
2021-06-06T14:09:21,42.805,6.029,CST-1368DR,5508,7683,14980,0.166,551
2021-06-06T14:12:22,42.805,6.029,CST-1368DR,5508,7684,14981,0.166,550
2021-06-06T14:15:24,42.805,6.029,CST-1368DR,5508,7684,14981,0.166,551
2021-06-06T14:18:25,42.805,6.029,CST-1368DR,5508,7684,14981,0.166,551
2021-06-06T14:21:27,42.805,6.029,CST-1368DR,5508,7684,14982,0.166,551
2021-06-06T14:24:29,42.805,6.029,CST-1368DR,5508,7685,14983,0.166,551
2021-06-06T14:27:30,42.805,6.029,CST-1368DR,5508,7684,14981,0.166,551
2021-06-06T14:30:32,42.805,6.029,CST-1368DR,5508,7685,14983,0.166,551
2021-06-06T14:33:33,42.805,6.029,CST-1368DR,5508,7682,14978,0.167,551
2021-06-06T14:36:35,42.805,6.029,CST-1368DR,5508,7683,14980,0.166,551
2021-06-06T14:39:37,42.805,6.029,CST-1368DR,5508,7683,14980,0.166,551
2021-06-06T14:42:38,42.805,6.029,CST-1368DR,5508,7683,14981,0.166,551
2021-06-06T14:45:40,42.805,6.029,CST-1368DR,5508,7681,14977,0.167,551
2021-06-06T14:48:41,42.805,6.029,CST-1368DR,5508,7684,14982,0.166,551
2021-06-06T14:51:43,42.805,6.029,CST-1368DR,5508,7685,14984,0.165,551
2021-06-06T14:54:44,42.805,6.029,CST-1368DR,5508,7685,14983,0.166,551
2021-06-06T14:57:46,42.805,6.029,CST-1368DR,5508,7683,14981,0.166,551
2021-06-06T15:00:48,42.805,6.029,CST-1368DR,5508,7683,14980,0.166,551
2021-06-06T15:03:49,42.805,6.029,CST-1368DR,5508,7683,14980,0.166,551
2021-06-06T15:06:51,42.805,6.029,CST-1368DR,5508,7685,14983,0.166,551
2021-06-06T15:09:52,42.805,6.029,CST-1368DR,5508,7684,14981,0.166,551
2021-06-06T15:12:54,42.805,6.029,CST-1368DR,5508,7685,14984,0.165,551
2021-06-06T15:15:55,42.805,6.029,CST-1368DR,5508,7685,14983,0.166,551
2021-06-06T15:18:57,42.805,6.029,CST-1368DR,5508,7685,14983,0.166,551
2021-06-06T15:21:59,42.805,6.029,CST-1368DR,5508,7683,14980,0.166,551
2021-06-06T15:25:00,42.805,6.029,CST-1368DR,5508,7684,14981,0.166,551
2021-06-06T15:28:02,42.805,6.029,CST-1368DR,5508,7683,14980,0.166,551
2021-06-06T15:31:03,42.805,6.029,CST-1368DR,5508,7685,14983,0.166,550
2021-06-06T15:34:05,42.805,6.029,CST-1368DR,5508,7685,14984,0.165,551
2021-06-06T15:37:07,42.805,6.029,CST-1368DR,5508,7683,14981,0.166,551
2021-06-06T15:40:08,42.805,6.029,CST-1368DR,5508,7684,14981,0.166,551
2021-06-06T15:43:10,42.805,6.029,CST-1368DR,5508,7681,14976,0.167,551
2021-06-06T15:46:11,42.805,6.029,CST-1368DR,5508,7680,14974,0.168,551
2021-06-06T15:49:13,42.805,6.029,CST-1368DR,5508,7681,14977,0.167,550
2021-06-06T15:52:14,42.805,6.029,CST-1368DR,5508,7684,14982,0.166,551
2021-06-06T15:55:16,42.805,6.029,CST-1368DR,5508,7685,14983,0.166,551
2021-06-06T15:58:18,42.805,6.029,CST-1368DR,5508,7682,14978,0.167,551
2021-06-06T16:01:19,42.805,6.029,CST-1368DR,5508,7685,14983,0.166,551
2021-06-06T16:04:21,42.805,6.029,CST-1368DR,5508,7685,14983,0.166,551
2021-06-06T16:07:22,42.805,6.029,CST-1368DR,5508,7685,14983,0.166,551
2021-06-06T16:10:24,42.805,6.029,CST-1368DR,5508,7685,14983,0.166,551
2021-06-06T16:13:25,42.805,6.029,CST-1368DR,5508,7685,14984,0.165,551
2021-06-06T16:16:27,42.805,6.029,CST-1368DR,5508,7685,14984,0.165,551
2021-06-06T16:19:29,42.805,6.029,CST-1368DR,5508,7684,14982,0.166,551
2021-06-06T16:22:30,42.805,6.029,CST-1368DR,5508,7685,14984,0.165,551
2021-06-06T16:25:32,42.805,6.029,CST-1368DR,5508,7685,14983,0.166,551
2021-06-06T16:28:33,42.805,6.029,CST-1368DR,5508,7684,14982,0.166,551
2021-06-06T16:31:35,42.805,6.029,CST-1368DR,5508,7685,14983,0.166,551
2021-06-06T16:34:37,42.805,6.029,CST-1368DR,5508,7685,14983,0.166,551
2021-06-06T16:37:38,42.805,6.029,CST-1368DR,5508,7684,14982,0.166,551
2021-06-06T16:40:40,42.805,6.029,CST-1368DR,5508,7685,14983,0.166,551
2021-06-06T16:43:41,42.805,6.029,CST-1368DR,5508,7684,14981,0.166,551
2021-06-06T16:46:43,42.805,6.029,CST-1368DR,5508,7685,14984,0.165,551
2021-06-06T16:49:44,42.805,6.029,CST-1368DR,5508,7684,14981,0.166,551
2021-06-06T16:52:46,42.805,6.029,CST-1368DR,5508,7684,14981,0.166,551